sat.trackr.live / text

‹ back to catalog

STARLINK-32090

NORAD 59691 · 2024-086K

PAYLOAD ACTIVE UNKNOWN

§ Identity

Operator
Country
US
Launch date
2024-05-08
Launch site
AFETR
Launch vehicle
Mass (kg)
RCS (m²)

Purposes: comms

External: N2YO · Heavens-Above · Gunter

§ Orbital elements

Epoch: 2026-09-21T19:48:14.112576Z

Period
94.27 min
Inclination
43.0060°
Eccentricity
0.0001638
Mean motion
15.27581921 rev/d
Perigee alt
481.9 km
Apogee alt
484.2 km
Semi-major
6,861.2 km
B*
4.3476e-5
RAAN
36.1019°
Arg perigee
289.1602°
Mean anomaly
70.9072°
Rev number
13,406

§ Raw data

STARLINK-320901 59691U 24086K   26264.82516334  .00000934  00000+0  43476-4 0  99952 59691  43.0060  36.1019 0001638 289.1602  70.9072 15.27581921134061

JSON: /api/v1/satellites/59691 · /tle

For live sub-satellite position, see the globe view (requires WebGL).

§ Visibility from observer

Set your observer location to see the next 7 days of passes ≥ 10°. The values pass through the URL so the page stays shareable.

No JS? Fill the form by hand. The geolocation button needs JavaScript.